DateTimeUTC,F1_A11,F1_S11,BsB_S11,BsG_S11,BsR_S11,BbsB_S11,BbsG_S11,BbsR_S11,BaB_A11,BaG_A11,BaR_A11,Tu_S11,T_S11,Uu_S11,U_S11,P_S11,T1_A11
2021-02-18T15:00:00Z,00000200,21000000,,,,,,,-000.14,-000.00,0000.08,17.8,24.0,,00.0,0630.9,31.0
2021-02-18T15:01:00Z,00000200,21000000,,,,,,,-000.24,-000.02,-000.35,17.8,24.0,,00.0,0630.9,31.0
2021-02-18T15:02:00Z,00000200,21000000,,,,,,,0000.10,-000.10,0000.47,17.7,24.0,,00.0,0630.9,31.1
2021-02-18T15:03:00Z,00000200,61000000,,,,,,,0000.11,0000.14,-000.04,17.7,24.0,,00.0,0630.9,31.0
2021-02-18T15:04:00Z,00000200,41000000,0000.41,0000.44,0000.03,0000.14,0000.27,0000.21,-000.01,0000.02,-000.05,17.7,23.8,00.1,00.1,0631.8,31.1
2021-02-18T15:05:00Z,00000200,01000000,-000.23,0000.23,0000.01,-000.19,-000.07,-000.30,0000.47,-000.06,0000.24,17.7,23.7,00.1,00.1,0631.7,31.0
2021-02-18T15:06:00Z,00000200,01000000,-000.14,-000.01,0000.12,0000.28,-000.05,0000.33,0000.30,0000.21,0000.25,17.8,23.7,00.2,00.1,0631.7,31.0
2021-02-18T15:07:00Z,00000200,01000000,-000.06,0000.27,-000.48,0000.10,0000.01,0000.00,-000.05,0000.14,0000.16,17.8,23.7,00.1,00.1,0631.7,31.0
2021-02-18T15:08:00Z,00000200,01000000,0000.17,0000.13,-000.23,0000.01,-000.13,-000.31,-000.13,0000.34,-000.30,17.9,23.8,00.2,00.1,0631.6,31.1
2021-02-18T15:09:00Z,00000200,01000000,-000.31,-000.10,-000.10,0000.11,-000.18,0000.02,0000.04,0000.09,0000.16,18.0,23.8,00.2,00.1,0631.6,31.1
2021-02-18T15:10:00Z,00000200,01000000,-000.36,-000.03,0000.20,0000.43,-000.10,0000.44,0000.13,-000.03,-000.12,18.1,23.9,00.2,00.1,0631.6,31.1
2021-02-18T15:11:00Z,00000200,01000000,0000.28,0000.34,-000.05,-000.11,0000.08,0000.07,0000.02,0000.16,0000.24,18.1,23.9,00.2,00.1,0631.6,31.1
2021-02-18T15:12:00Z,00000200,01000000,-000.09,0000.19,0000.13,0000.28,-000.04,0000.07,0000.40,0000.31,-000.00,18.2,23.9,00.2,00.1,0631.6,31.1
2021-02-18T15:13:00Z,00000200,01000000,0000.30,0000.08,0000.18,0000.27,0000.10,0000.10,-000.14,-000.19,0000.30,18.3,24.0,00.2,00.1,0631.6,31.1
2021-02-18T15:14:00Z,00000200,01000000,-000.24,0000.28,0000.01,0000.26,-000.02,-000.02,0000.28,0000.04,0000.21,18.4,24.0,00.1,00.1,0631.6,31.1
2021-02-18T15:15:00Z,00000200,01000000,0000.14,0000.36,-000.10,0000.49,0000.02,0000.34,-000.26,0000.25,-000.14,18.4,24.1,00.1,00.1,0631.5,31.1
2021-02-18T15:16:00Z,00000200,01000000,0000.01,0000.04,-000.21,0000.18,-000.29,-000.19,0000.05,-000.11,0000.21,18.5,24.1,00.2,00.1,0631.6,31.1
2021-02-18T15:17:00Z,00000200,01000000,0000.04,0000.34,-000.20,0000.41,-000.08,-000.04,0000.03,-000.00,-000.47,18.6,24.2,00.2,00.1,0631.6,31.1
2021-02-18T15:18:00Z,00000200,01000000,0000.26,0000.09,-000.19,0000.22,0000.07,0000.30,-000.11,-000.01,0000.15,18.6,24.2,00.1,00.1,0631.6,31.1
2021-02-18T15:19:00Z,00000200,01000000,-000.42,-000.07,0000.06,0000.42,-000.18,0000.23,-000.13,-000.25,0000.02,18.6,24.2,00.1,00.1,0631.6,31.1
2021-02-18T15:20:00Z,00000200,01000000,0000.43,0000.32,-000.04,-000.22,0000.06,0000.03,0000.07,0000.00,-000.18,18.6,24.2,00.1,00.1,0631.6,31.1
2021-02-18T15:21:00Z,00000200,01000000,-000.15,-000.07,0000.08,-000.29,0000.16,0000.39,-000.11,-000.02,-000.11,18.5,24.2,00.2,00.1,0631.5,31.1
2021-02-18T15:22:00Z,00000200,01000000,-000.15,0000.07,-000.22,-000.05,0000.14,0000.06,0000.02,-000.03,0000.03,18.5,24.2,00.1,00.1,0631.6,31.1
2021-02-18T15:23:00Z,00000200,01000000,0000.11,-000.05,-000.10,0000.16,-000.18,-000.09,0000.01,-000.11,0000.18,18.4,24.2,00.1,00.1,0631.6,31.1
2021-02-18T15:24:00Z,00000200,01000000,-000.45,0000.16,-000.04,0000.65,-000.11,-000.13,0000.07,0000.15,-000.24,18.4,24.1,00.1,00.1,0631.7,31.1
2021-02-18T15:25:00Z,00000200,01000000,0000.21,0000.06,0000.19,0000.03,0000.03,0000.11,-000.29,-000.12,0000.04,18.3,24.1,00.2,00.1,0631.5,31.1
2021-02-18T15:26:00Z,00000200,01000000,0000.85,0000.31,-000.01,-000.11,0000.01,0000.20,0000.34,0000.27,0000.08,18.3,24.1,00.1,00.1,0631.6,31.1
2021-02-18T15:27:00Z,00000200,01000000,-000.26,0000.22,0000.15,0000.27,-000.15,0000.31,0000.19,0000.15,0000.17,18.2,24.1,00.1,00.1,0631.6,31.0
2021-02-18T15:28:00Z,00000200,01000000,-000.13,0000.24,-000.13,-000.29,0000.12,0000.03,-000.44,-000.23,-000.02,18.1,24.0,00.2,00.1,0631.6,31.0
2021-02-18T15:29:00Z,00000200,01000000,-000.17,0000.10,0000.00,0000.34,-000.04,0000.32,0000.13,-000.16,-000.10,18.1,24.0,00.1,00.1,0631.6,31.0
2021-02-18T15:30:00Z,00000200,01000000,-000.33,0000.26,-000.45,0000.34,0000.13,0000.08,0000.22,0000.19,0000.08,18.0,24.0,00.1,00.1,0631.6,31.0
2021-02-18T15:31:00Z,00000200,01000000,-000.08,0000.17,-000.22,0000.05,0000.08,0000.28,-000.19,-000.19,0000.12,18.0,24.0,00.2,00.1,0631.6,31.0
2021-02-18T15:32:00Z,00000200,01000000,-000.20,0000.04,0000.11,0000.79,0000.05,0000.15,0000.31,0000.56,-000.14,18.0,23.9,00.1,00.1,0631.6,31.0
2021-02-18T15:33:00Z,00000200,01000000,-000.54,-000.03,-000.00,0000.21,-000.19,0000.34,-000.09,-000.50,-000.27,17.9,23.9,00.1,00.1,0631.6,31.1
2021-02-18T15:34:00Z,00000200,01000000,0000.45,0000.20,-000.12,-000.17,-000.01,-000.05,0000.08,-000.22,0000.08,17.9,23.9,00.2,00.1,0631.5,31.0
2021-02-18T15:35:00Z,00000200,01000000,0000.17,0000.16,0000.08,0000.11,-000.00,0000.24,0000.15,0000.24,-000.01,17.9,23.9,00.2,00.2,0631.6,31.0
2021-02-18T15:36:00Z,00000200,01000000,0000.65,0000.13,0000.10,0000.08,-000.16,0000.27,0000.04,0000.09,-000.09,17.9,23.9,00.2,00.1,0631.5,31.0
2021-02-18T15:37:00Z,00000200,01000000,-000.47,0000.33,-000.05,0000.38,-000.01,0000.44,0000.13,0000.26,0000.75,18.0,23.9,00.2,00.1,0631.6,31.0
2021-02-18T15:38:00Z,00000200,01000000,-000.32,0000.07,-000.15,0000.19,-000.08,0000.09,0000.14,0000.32,-000.19,18.1,23.9,00.2,00.1,0631.6,31.1
2021-02-18T15:39:00Z,00000200,01000000,-000.13,0000.18,-000.03,-000.47,0000.10,-000.02,-000.13,-000.19,0000.27,18.1,24.0,00.2,00.1,0631.5,31.1
2021-02-18T15:40:00Z,00000200,01000000,0000.33,0000.06,-000.07,0000.41,-000.07,0000.40,-000.17,0000.38,-000.32,18.2,24.0,00.3,00.2,0631.4,31.1
2021-02-18T15:41:00Z,00000200,01000000,-000.45,0000.11,-000.11,-000.20,0000.05,0000.01,0000.28,-000.15,0000.34,18.3,24.1,00.2,00.1,0631.4,31.1
2021-02-18T15:42:00Z,00000200,01000000,-000.00,0000.31,-000.24,0000.47,0000.20,0000.04,0000.18,-000.14,-000.14,18.3,24.1,00.2,00.2,0631.4,31.1
2021-02-18T15:43:00Z,00000200,01000000,0000.34,0000.10,-000.13,0000.00,-000.05,0000.02,-000.48,-000.06,-000.09,18.3,24.1,00.3,00.2,0631.3,31.1
2021-02-18T15:44:00Z,00000200,01000000,0000.14,0000.17,-000.02,0000.09,0000.24,0000.14,0000.29,0000.20,-000.11,18.3,24.1,00.2,00.1,0631.2,31.1
2021-02-18T15:45:00Z,00000200,01000000,0000.36,0000.05,0000.01,0000.49,0000.13,-000.08,-000.26,-000.05,-000.08,18.2,24.1,00.2,00.2,0631.3,31.1
2021-02-18T15:46:00Z,00000200,01000000,-000.73,0000.05,0000.14,-000.16,0000.02,-000.05,0000.20,-000.08,0000.22,18.2,24.0,00.2,00.2,0631.2,31.1
2021-02-18T15:47:00Z,00000200,01000000,0000.13,0000.16,0000.15,-000.02,-000.29,-000.08,0000.30,-000.07,-000.13,18.1,24.0,00.2,00.1,0631.3,31.1
2021-02-18T15:48:00Z,00000200,01000000,0000.10,0000.59,-000.27,0000.05,-000.03,0000.04,-000.33,0000.02,-000.22,18.1,24.0,00.2,00.2,0631.3,31.1
2021-02-18T15:49:00Z,00000200,01000000,0000.28,0000.16,0000.22,0000.20,0000.06,0000.03,-000.11,-000.04,0000.34,18.0,24.0,00.2,00.2,0631.3,31.1
2021-02-18T15:50:00Z,00000200,01000000,-000.19,0000.30,0000.39,0000.78,-000.01,0000.33,0000.09,0000.05,-000.14,18.0,23.9,00.2,00.2,0631.2,31.1
2021-02-18T15:51:00Z,00000200,01000000,0000.24,0000.32,0000.06,0000.28,0000.01,0000.15,-000.02,0000.11,0000.18,17.9,23.9,00.2,00.1,0631.2,31.0
2021-02-18T15:52:00Z,00000200,01000000,0000.11,0000.37,-000.06,0000.03,0000.02,0000.24,0000.10,-000.01,-000.31,17.9,23.9,00.3,00.2,0631.2,31.0
2021-02-18T15:53:00Z,00000200,01000000,-000.16,0000.26,-000.18,-000.04,-000.10,-000.21,-000.17,-000.21,0000.52,17.9,23.9,00.2,00.2,0631.2,31.0
2021-02-18T15:54:00Z,00000200,01000000,-000.23,0000.08,-000.05,-000.32,0000.09,0000.34,0000.12,0000.21,-000.16,17.8,23.8,00.3,00.2,0631.1,31.0
2021-02-18T15:55:00Z,00000200,01000000,0000.10,0000.39,0000.08,0000.17,-000.03,0000.36,-000.01,0000.16,-000.04,17.8,23.8,00.2,00.2,0631.1,31.1
2021-02-18T15:56:00Z,00000200,01000000,-000.06,0000.14,-000.11,0000.34,-000.11,0000.04,0000.18,-000.35,-000.16,17.8,23.8,00.3,00.2,0631.2,31.0
2021-02-18T15:57:00Z,00000200,41000000,,,,,,,-000.42,-000.04,-000.10,17.8,23.8,00.6,00.4,0631.3,31.0
2021-02-18T15:58:00Z,00000200,61000000,,,,,,,0000.31,0000.00,0000.15,17.5,23.9,00.0,00.0,0630.1,31.0
2021-02-18T15:59:00Z,00000200,21000000,,,,,,,-000.03,-000.13,-000.14,17.5,24.0,,00.0,0630.0,31.0
